Manhattan, KS

4:20 AM CST on December 16, 2019 (GMT -0600)
Manhattan Regional

Weather History for KMHK - October, 2019

Change the Weather History Date:

Sunday, October 6, 2019

  Actual Average Record
Temperature  
Mean Temperature 57 °F 59 °F  
Max Temperature 70 °F 72 °F 89 °F (1997)
Min Temperature 44 °F 46 °F 30 °F (2000)
Degree Days  
Heating Degree Days 8 8  
Month to date heating degree days 32 41  
Since 1 July heating degree days 33 111  
Cooling Degree Days 0 2  
Month to date cooling degree days 13 12  
Year to date cooling degree days 1608 1349  
Growing Degree Days 7 (Base 50)    
Moisture  
Dew Point 45 °F    
Average Humidity 66    
Maximum Humidity 100    
Minimum Humidity 31    
Precipitation  
Precipitation 0.00 in 0.08 in 1.39 in (2017)
Month to date precipitation 1.93 0.51  
Year to date precipitation 39.91 28.22  
Sea Level Pressure  
Sea Level Pressure 30.16 in    
Wind  
Wind Speed 2 mph (NNE)    
Max Wind Speed 14 mph    
Max Gust Speed 23 mph    
Visibility 8 miles    
Events Fog    
T = Trace of Precipitation, MM = Missing Value Source: NWS Daily Summary

Daily Weather History Graph

Daily Weather History Graph

Search for Another Location

Airport or City:

Astronomy

Oct. 06, 2019 Rise Set
Actual Time 7:27 AM CDT 7:01 PM CDT
Civil Twilight 7:00 AM CDT 7:28 PM CDT
Nautical Twilight 6:29 AM CDT 7:59 PM CDT
Astronomical Twilight 5:58 AM CDT 8:30 PM CDT
Moon 3:38 PM CDT (10/6) 12:29 AM CDT (10/6)
Length of Visible Light 12h 27m
Length of Day
11h 34m
First Quarter, 60% of the Moon is Illuminated
Oct 6
First Quarter
Oct 13
Full
Oct 21
Last Quarter
Oct 27
New
Nov 4
First Quarter

Hourly Weather History & Observations

Time (CDT) Temp. Dew Point Humidity Pressure Visibility Wind Dir Wind Speed Gust Speed Precip Events Conditions
12:52 AM 46.9 °F 45.0 °F 93% 30.06 in 10.0 mi Calm Calm - N/A   Clear
1:52 AM 46.0 °F 44.1 °F 93% 30.06 in 10.0 mi Calm Calm - N/A   Clear
2:40 AM 46.0 °F 44.1 °F 93% 30.06 in 10.0 mi Calm Calm - N/A   Scattered Clouds
2:45 AM 46.0 °F 44.1 °F 93% 30.06 in 2.0 mi Calm Calm - N/A   Mostly Cloudy
2:52 AM 46.0 °F 45.0 °F 96% 30.06 in 1.0 mi Calm Calm - N/A   Mist
2:57 AM 46.0 °F 45.0 °F 96% 30.07 in 3.0 mi Calm Calm - N/A   Overcast
3:34 AM 45.0 °F 44.1 °F 97% 30.07 in 1.5 mi Calm Calm - N/A   Overcast
3:45 AM 45.0 °F 44.1 °F 97% 30.07 in 0.5 mi Calm Calm - N/A Fog Fog
3:52 AM 45.0 °F 44.1 °F 97% 30.07 in 0.2 mi Calm Calm - N/A Fog Fog
4:00 AM 44.1 °F 43.0 °F 96% 30.08 in 0.8 mi Calm Calm - N/A   Mist
4:16 AM 45.0 °F 44.1 °F 97% 30.08 in 1.2 mi Calm Calm - N/A   Scattered Clouds
4:21 AM 45.0 °F 44.1 °F 97% 30.08 in 4.0 mi Calm Calm - N/A   Partly Cloudy
4:52 AM 46.0 °F 45.0 °F 96% 30.08 in 10.0 mi Calm Calm - N/A   Clear
5:52 AM 46.9 °F 45.0 °F 93% 30.12 in 10.0 mi Calm Calm - N/A   Clear
6:52 AM 46.9 °F 45.0 °F 93% 30.15 in 10.0 mi Calm Calm - N/A   Clear
7:52 AM 48.9 °F 46.9 °F 93% 30.16 in 10.0 mi Calm Calm - N/A   Mostly Cloudy
8:52 AM 51.1 °F 48.9 °F 92% 30.19 in 10.0 mi Calm Calm - N/A   Overcast
9:52 AM 54.0 °F 50.0 °F 86% 30.21 in 10.0 mi Calm Calm - N/A   Mostly Cloudy
10:52 AM 57.0 °F 53.1 °F 87% 30.23 in 10.0 mi Calm Calm - N/A   Partly Cloudy
11:52 AM 62.1 °F 50.0 °F 65% 30.25 in 10.0 mi NE 4.6 mph - N/A   Partly Cloudy
12:52 PM 66.0 °F 45.0 °F 47% 30.24 in 10.0 mi NNE 5.8 mph - N/A   Clear
1:52 PM 70.0 °F 41.0 °F 35% 30.23 in 10.0 mi North 11.5 mph 18.4 mph N/A   Clear
2:52 PM 70.0 °F 37.0 °F 30% 30.23 in 10.0 mi North 10.4 mph 19.6 mph N/A   Clear
3:52 PM 66.9 °F 37.0 °F 33% 30.24 in 10.0 mi North 9.2 mph 17.3 mph N/A   Clear
4:52 PM 68.0 °F 39.0 °F 35% 30.23 in 10.0 mi North 9.2 mph 17.3 mph N/A   Clear
5:52 PM 66.9 °F 44.1 °F 44% 30.22 in 10.0 mi Variable 3.5 mph - N/A   Clear
6:52 PM 57.9 °F 48.9 °F 72% 30.23 in 10.0 mi SW 3.5 mph - N/A   Clear
7:52 PM 52.0 °F 48.0 °F 86% 30.25 in 10.0 mi Calm Calm - N/A   Clear
8:52 PM 50.0 °F 46.9 °F 89% 30.27 in 10.0 mi Calm Calm - N/A   Clear
9:52 PM 48.0 °F 46.0 °F 93% 30.29 in 10.0 mi Calm Calm - N/A   Clear
10:52 PM 46.9 °F 45.0 °F 93% 30.30 in 10.0 mi Calm Calm - N/A   Clear
11:52 PM 45.0 °F 44.1 °F 97% 30.31 in 10.0 mi Calm Calm - N/A   Clear